• en Suisse
  • Liste des pays
  • À 7 jours
  • Température de l'eau
  • Carte satellitaire
  • Carte météo
  • Widgets météo
  • user-avatar
    Se connecter

    Météo par heure à Seredivka

    Ce jour, 26 Avril, Jeudi

    Heure Température Précipitation Vent Pression Humidité
    00:00 +14°C° 0,3 mm 4 m/s 744 mmHg 89%
    01:00 +14°C° 0,3 mm 4 m/s 744 mmHg 88%
    02:00 +13°C° 0 mm 3 m/s 743 mmHg 91%
    03:00 +13°C° 0,2 mm 4 m/s 743 mmHg 90%
    04:00 +13°C° 0,2 mm 4 m/s 743 mmHg 90%
    05:00 +13°C° 0,2 mm 4 m/s 743 mmHg 89%
    06:00 +15°C° 0 mm 5 m/s 743 mmHg 84%
    07:00 +16°C° 0 mm 6 m/s 744 mmHg 78%
    08:00 +17°C° 0 mm 6 m/s 744 mmHg 70%
    09:00 +18°C° 0 mm 7 m/s 745 mmHg 64%
    10:00 +20°C° 0 mm 7 m/s 745 mmHg 57%
    11:00 +21°C° 0 mm 8 m/s 746 mmHg 50%
    12:00 +21°C° 0 mm 8 m/s 746 mmHg 48%
    13:00 +21°C° 0 mm 7 m/s 746 mmHg 46%
    14:00 +23°C° 0 mm 7 m/s 746 mmHg 41%
    15:00 +22°C° 0 mm 6 m/s 746 mmHg 43%
    16:00 +21°C° 0 mm 5 m/s 746 mmHg 46%
    17:00 +21°C° 0 mm 4 m/s 747 mmHg 49%
    18:00 +19°C° 0 mm 4 m/s 747 mmHg 52%
    19:00 +17°C° 0 mm 3 m/s 747 mmHg 56%
    20:00 +15°C° 0 mm 2 m/s 747 mmHg 60%
    21:00 +15°C° 0,1 mm 2 m/s 748 mmHg 62%
    22:00 +14°C° 0,1 mm 2 m/s 748 mmHg 65%
    23:00 +14°C° 0,1 mm 2 m/s 748 mmHg 67%

    Demain, 27 Avril, Vendredi

    Heure Température Précipitation Vent Pression Humidité
    00:00 +13°C° 2,1 mm 2 m/s 748 mmHg 74%
    01:00 +12°C° 2,1 mm 2 m/s 748 mmHg 82%
    02:00 +10°C° 2,1 mm 2 m/s 749 mmHg 89%
    03:00 +10°C° 0,7 mm 2 m/s 749 mmHg 90%
    04:00 +10°C° 0,7 mm 2 m/s 749 mmHg 91%
    05:00 +9°C° 0,7 mm 2 m/s 749 mmHg 91%
    06:00 +10°C° 0 mm 2 m/s 749 mmHg 89%
    07:00 +11°C° 0 mm 1 m/s 749 mmHg 86%
    08:00 +12°C° 0 mm 1 m/s 749 mmHg 83%
    09:00 +12°C° 0,1 mm 1 m/s 749 mmHg 79%
    10:00 +13°C° 0,1 mm 1 m/s 749 mmHg 76%
    11:00 +14°C° 0,1 mm 2 m/s 750 mmHg 72%
    12:00 +15°C° 0,2 mm 2 m/s 750 mmHg 70%
    13:00 +15°C° 0,2 mm 2 m/s 750 mmHg 68%
    14:00 +16°C° 0,2 mm 2 m/s 750 mmHg 67%
    15:00 +16°C° 0,2 mm 2 m/s 750 mmHg 66%
    16:00 +16°C° 0,2 mm 3 m/s 750 mmHg 66%
    17:00 +16°C° 0,2 mm 3 m/s 750 mmHg 66%
    18:00 +14°C° 0 mm 3 m/s 750 mmHg 69%
    19:00 +13°C° 0 mm 2 m/s 751 mmHg 73%
    20:00 +12°C° 0 mm 2 m/s 751 mmHg 76%
    21:00 +10°C° 0 mm 2 m/s 751 mmHg 78%
    22:00 +10°C° 0 mm 2 m/s 752 mmHg 79%
    23:00 +9°C° 0 mm 2 m/s 752 mmHg 80%

    Après-demain, 28 Avril, Samedi

    Heure Température Précipitation Vent Pression Humidité
    00:00 +9°C° 0 mm 2 m/s 752 mmHg 81%
    01:00 +8°C° 0 mm 2 m/s 753 mmHg 82%
    02:00 +8°C° 0 mm 2 m/s 753 mmHg 83%
    03:00 +7°C° 0 mm 2 m/s 753 mmHg 84%
    04:00 +7°C° 0 mm 2 m/s 754 mmHg 85%
    05:00 +7°C° 0 mm 2 m/s 754 mmHg 86%
    06:00 +8°C° 0 mm 2 m/s 754 mmHg 79%
    07:00 +11°C° 0 mm 1 m/s 755 mmHg 73%
    08:00 +13°C° 0 mm 1 m/s 755 mmHg 66%
    09:00 +14°C° 0 mm 1 m/s 755 mmHg 60%
    10:00 +15°C° 0 mm 2 m/s 755 mmHg 54%
    11:00 +16°C° 0 mm 2 m/s 756 mmHg 47%
    12:00 +17°C° 0 mm 2 m/s 755 mmHg 46%
    13:00 +18°C° 0 mm 2 m/s 755 mmHg 44%
    14:00 +18°C° 0 mm 2 m/s 755 mmHg 42%
    15:00 +18°C° 0 mm 2 m/s 755 mmHg 44%
    16:00 +18°C° 0 mm 2 m/s 755 mmHg 46%
    17:00 +18°C° 0 mm 2 m/s 754 mmHg 48%
    18:00 +17°C° 0 mm 2 m/s 755 mmHg 53%
    19:00 +15°C° 0 mm 2 m/s 755 mmHg 57%
    20:00 +14°C° 0 mm 2 m/s 755 mmHg 61%
    21:00 +12°C° 0 mm 3 m/s 755 mmHg 63%
    22:00 +12°C° 0 mm 3 m/s 755 mmHg 64%
    23:00 +11°C° 0 mm 3 m/s 756 mmHg 66%

    29 Avril, Dimanche

    Heure Température Précipitation Vent Pression Humidité
    00:00 +11°C° 0 mm 3 m/s 756 mmHg 66%
    01:00 +11°C° 0 mm 4 m/s 756 mmHg 66%
    02:00 +10°C° 0 mm 4 m/s 756 mmHg 66%
    03:00 +10°C° 0 mm 4 m/s 756 mmHg 67%
    04:00 +10°C° 0 mm 4 m/s 755 mmHg 67%
    05:00 +10°C° 0 mm 4 m/s 755 mmHg 68%
    06:00 +11°C° 0 mm 4 m/s 755 mmHg 66%
    07:00 +13°C° 0 mm 5 m/s 756 mmHg 63%
    08:00 +15°C° 0 mm 5 m/s 756 mmHg 61%
    09:00 +17°C° 0 mm 5 m/s 756 mmHg 58%
    10:00 +19°C° 0 mm 6 m/s 755 mmHg 54%
    11:00 +21°C° 0 mm 6 m/s 755 mmHg 51%
    12:00 +22°C° 0 mm 6 m/s 755 mmHg 49%
    13:00 +22°C° 0 mm 6 m/s 755 mmHg 48%
    14:00 +23°C° 0 mm 6 m/s 755 mmHg 47%
    15:00 +23°C° 0 mm 5 m/s 754 mmHg 50%
    16:00 +22°C° 0 mm 5 m/s 754 mmHg 54%
    17:00 +22°C° 0 mm 4 m/s 754 mmHg 57%
    18:00 +20°C° 0 mm 4 m/s 754 mmHg 61%
    19:00 +18°C° 0 mm 4 m/s 754 mmHg 65%
    20:00 +17°C° 0 mm 4 m/s 754 mmHg 69%
    21:00 +15°C° 0 mm 4 m/s 754 mmHg 69%
    22:00 +14°C° 0 mm 3 m/s 754 mmHg 69%
    23:00 +14°C° 0 mm 3 m/s 754 mmHg 70%

    30 Avril, Lundi

    Heure Température Précipitation Vent Pression Humidité
    00:00 +13°C° 0 mm 3 m/s 754 mmHg 70%
    01:00 +13°C° 0 mm 3 m/s 754 mmHg 71%
    02:00 +12°C° 0 mm 3 m/s 754 mmHg 71%
    03:00 +12°C° 0 mm 3 m/s 754 mmHg 73%
    04:00 +11°C° 0 mm 3 m/s 754 mmHg 74%
    05:00 +11°C° 0 mm 3 m/s 753 mmHg 76%
    06:00 +13°C° 0 mm 3 m/s 754 mmHg 71%
    07:00 +15°C° 0 mm 4 m/s 754 mmHg 66%
    08:00 +18°C° 0 mm 4 m/s 754 mmHg 61%
    09:00 +19°C° 0 mm 5 m/s 753 mmHg 58%
    10:00 +20°C° 0 mm 5 m/s 753 mmHg 54%
    11:00 +22°C° 0 mm 6 m/s 753 mmHg 50%
    12:00 +22°C° 0 mm 6 m/s 753 mmHg 49%
    13:00 +23°C° 0 mm 6 m/s 753 mmHg 47%
    14:00 +24°C° 0 mm 6 m/s 752 mmHg 46%
    15:00 +23°C° 0 mm 5 m/s 752 mmHg 49%
    16:00 +23°C° 0 mm 5 m/s 752 mmHg 52%
    17:00 +23°C° 0 mm 4 m/s 751 mmHg 55%
    18:00 +21°C° 0 mm 4 m/s 751 mmHg 59%
    19:00 +19°C° 0 mm 4 m/s 751 mmHg 64%
    20:00 +17°C° 0 mm 3 m/s 751 mmHg 68%
    21:00 +16°C° 0 mm 3 m/s 751 mmHg 68%
    22:00 +16°C° 0 mm 3 m/s 752 mmHg 69%
    23:00 +14°C° 0 mm 3 m/s 752 mmHg 70%

    1 Mai, Mardi

    Heure Température Précipitation Vent Pression Humidité
    00:00 +14°C° 0 mm 3 m/s 752 mmHg 70%
    01:00 +13°C° 0 mm 3 m/s 752 mmHg 71%
    02:00 +13°C° 0 mm 3 m/s 752 mmHg 72%
    03:00 +12°C° 0 mm 3 m/s 752 mmHg 73%
    04:00 +12°C° 0 mm 3 m/s 752 mmHg 74%
    05:00 +12°C° 0 mm 3 m/s 752 mmHg 75%
    06:00 +14°C° 0 mm 3 m/s 752 mmHg 71%
    07:00 +16°C° 0 mm 3 m/s 752 mmHg 66%
    08:00 +18°C° 0 mm 3 m/s 753 mmHg 61%
    09:00 +20°C° 0 mm 3 m/s 753 mmHg 56%
    10:00 +21°C° 0 mm 4 m/s 753 mmHg 52%
    11:00 +23°C° 0 mm 4 m/s 753 mmHg 47%
    12:00 +23°C° 0 mm 4 m/s 752 mmHg 46%
    13:00 +25°C° 0 mm 4 m/s 752 mmHg 45%
    14:00 +25°C° 0 mm 4 m/s 752 mmHg 44%
    15:00 +25°C° 0 mm 3 m/s 752 mmHg 47%
    16:00 +25°C° 0 mm 3 m/s 752 mmHg 49%
    17:00 +25°C° 0 mm 2 m/s 752 mmHg 52%
    18:00 +23°C° 0 mm 2 m/s 752 mmHg 55%
    19:00 +20°C° 0 mm 2 m/s 752 mmHg 59%
    20:00 +18°C° 0 mm 2 m/s 752 mmHg 62%
    21:00 +18°C° 0 mm 2 m/s 752 mmHg 63%
    22:00 +17°C° 0 mm 2 m/s 752 mmHg 63%
    23:00 +16°C° 0 mm 2 m/s 752 mmHg 64%
    Voir plus